{"data":{"norad_id":50488,"epoch":"2026-09-20T02:10:10.356960Z","epoch_age_seconds":60990,"freshness":"FRESH","line1":"1 50488U 21132V   26263.09039765 -.00000211  00000+0 -62995-3 0  9991","line2":"2 50488  87.8974   2.1946 0001810 110.3830 249.7493 13.11418600228025","mean_motion":13.114186,"eccentricity":0.000181,"inclination_deg":87.8974,"raan_deg":2.1946,"arg_perigee_deg":110.383,"mean_anomaly_deg":249.7493,"bstar":-0.00062995,"rev_number":22802,"period_min":109.80475646754,"perigee_km":1216.301465587,"apogee_km":1219.0511500045,"semimajor_km":7595.8133077957,"source":"CELESTRAK","updated_at":"2026-09-20T09:00:44.703409Z"}}